Location: Guilderland
(42.7045°N, 73.9115°W)
Time: 03:29:16
(UTC+00:00)

Cosmos 864 Rocket - Pass Details

Date: 24 January 2020
Orbit: 954 x 991 km, 82.9° (Epoch: 18 February)

Event Time Altitude Azimuth Distance (km) Brightness Sun altitude
Rises 23:06:38 0° 177° (S) 3,619 7.6 -12.7°
Reaches altitude 10° 23:09:08 10° 174° (S) 2,675 6.9 -13.1°
Maximum altitude 23:15:10 66° 94° (E) 1,036 4.4 -14.2°
Drops below altitude 10° 23:21:15 10° 13° (NNE) 2,693 6.6 -15.3°
Sets 23:23:46 0° 11° (N) 3,646 7.3 -15.7°
